Location: Miles
(41.4492°N, 81.6087°W)
Time: 12:49:02
(UTC+00:00)

Courier 1B - Pass Details

Date: 21 September 2024
Orbit: 962 x 1208 km, 28.3° (Epoch: 10 October)

Event Time Altitude Azimuth Distance (km) Brightness Sun altitude
Rises 22:31:16 0° 254° (WSW) 3,928 12.8 9.1°
Reaches altitude 10° 22:36:32 10° 222° (SW) 3,030 11.0 8.1°
Maximum altitude 22:38:39 11° 206° (SSW) 2,952 10.6 7.7°
Drops below altitude 10° 22:40:46 10° 189° (S) 3,070 10.4 7.3°
Sets 22:46:16 0° 158° (SSE) 4,073 10.6 6.3°
